Date,TemperatureHighF,TemperatureAvgF,TemperatureLowF,DewpointHighF,DewpointAvgF,DewpointLowF,HumidityHigh,HumidityAvg,HumidityLow,PressureMaxIn,PressureMinIn,WindSpeedMaxMPH,WindSpeedAvgMPH,GustSpeedMaxMPH,PrecipitationSumIn
2013-6-1,84,75,69,70,66,62,88,74,61,30.00,29.81,32,8,32,0.15
2013-6-2,78,70,65,65,62,58,88,76,58,29.94,29.86,16,4,16,0.00
2013-6-3,75,66,60,58,56,53,90,71,50,30.05,29.91,12,4,12,0.00
2013-6-4,82,68,56,58,54,50,83,64,43,30.12,30.03,12,3,12,0.00
2013-6-5,84,72,60,66,58,49,84,64,47,30.05,29.86,12,2,12,0.00
2013-6-6,77,70,66,68,65,63,90,83,70,29.88,29.75,13,4,13,0.04
2013-6-7,79,68,62,63,60,58,90,78,53,29.87,29.76,12,4,12,0.00
2013-6-8,84,71,62,65,60,56,85,69,50,30.04,29.86,12,1,12,0.00
2013-6-9,81,69,62,69,62,57,90,80,58,30.07,29.93,12,3,12,0.22
2013-6-10,76,69,64,67,64,61,90,84,68,29.93,29.83,17,5,17,0.82
2013-6-11,84,73,63,67,64,60,90,75,54,30.01,29.91,12,4,12,0.01
2013-6-12,92,82,72,75,70,65,84,69,51,29.96,29.79,21,7,21,0.00
2013-6-13,82,76,66,72,66,56,90,73,57,29.92,29.66,26,9,26,0.73
2013-6-14,82,70,56,62,57,51,85,65,46,30.05,29.90,12,3,12,0.00
2013-6-15,86,74,61,62,59,56,84,61,40,30.12,29.98,12,2,12,0.00
2013-6-16,82,73,66,69,64,60,90,74,64,30.05,29.96,17,3,17,0.76
2013-6-17,88,74,66,72,66,57,90,79,48,29.99,29.87,16,2,16,0.13
2013-6-18,86,72,64,68,64,56,90,78,52,29.98,29.84,28,2,28,0.46
2013-6-19,83,72,62,64,61,58,90,70,46,30.10,29.95,13,4,13,0.01
2013-6-20,90,76,62,65,60,57,83,60,38,30.19,30.10,13,2,13,0.00
2013-6-21,89,77,66,69,64,60,90,66,46,30.22,30.11,37,2,37,1.03
2013-6-22,91,78,66,71,67,63,90,71,46,30.20,30.06,9,2,9,0.00
2013-6-23,89,78,67,69,66,62,87,66,44,30.16,30.05,12,3,12,0.00
2013-6-25,90,80,68,74,70,65,90,74,55,30.09,29.93,24,4,13,0.01
2013-6-26,86,75,67,73,68,63,90,80,60,29.97,29.77,20,5,20,2.33
2013-6-27,87,75,67,76,69,64,90,82,61,29.85,29.75,13,4,13,0.27
2013-6-28,86,78,70,70,65,58,87,67,42,29.76,29.60,20,6,20,0.00
2013-6-29,81,72,64,65,62,60,90,72,55,29.70,29.59,18,4,18,1.34
2013-6-30,82,71,63,65,62,60,90,75,51,29.80,29.66,12,2,12,0.02